owner,sensor,date,latitude,longitude,vertical_datum,direction_of_sea_water_velocity,sea_water_speed,upward_sea_water_velocity,qcFlag 
TABS,ioos:station:wmo:42043:1,2000-01-02T17:00:00Z,28.9818,-94.9186,2.0,259.6332807,3.334426487,-99999.0,'11133222,11111222,99999999' 
TABS,ioos:station:wmo:42043:1,2000-01-02T17:30:00Z,28.9818,-94.9186,2.0,240.3434145,2.405036382,-99999.0,'11133222,11111222,99999999' 
TABS,ioos:station:wmo:42043:1,2000-01-02T18:00:00Z,28.9818,-94.9186,2.0,255.9957023,4.29773196,-99999.0,'11133222,11111222,99999999' 
TABS,ioos:station:wmo:42043:1,2000-01-02T18:30:00Z,28.9818,-94.9186,2.0,253.8405314,5.892809177,-99999.0,'11133222,11111222,99999999' 
TABS,ioos:station:wmo:42043:1,2000-01-02T19:00:00Z,28.9818,-94.9186,2.0,245.237005,6.398320092,-99999.0,'11133222,11111222,99999999' 
TABS,ioos:station:wmo:42043:1,2000-01-02T19:30:00Z,28.9818,-94.9186,2.0,244.662166,6.262427644,-99999.0,'11133222,11111222,99999999' 
TABS,ioos:station:wmo:42043:1,2000-01-02T20:00:00Z,28.9818,-94.9186,2.0,246.0569854,5.864639801,-99999.0,'11133222,11111222,99999999' 
TABS,ioos:station:wmo:42043:1,2000-01-02T20:30:00Z,28.9818,-94.9186,2.0,250.8845687,7.72598861,-99999.0,'11133222,11111222,99999999' 
TABS,ioos:station:wmo:42043:1,2000-01-02T21:00:00Z,28.9818,-94.9186,2.0,241.1740934,6.802940541,-99999.0,'11133222,11111222,99999999' 
TABS,ioos:station:wmo:42043:1,2000-01-02T21:30:00Z,28.9818,-94.9186,2.0,247.8310243,8.692577293,-99999.0,'11133222,11111222,99999999' 
TABS,ioos:station:wmo:42043:1,2000-01-02T22:00:00Z,28.9818,-94.9186,2.0,250.8400833,7.251682563,-99999.0,'11133222,11111222,99999999' 
TABS,ioos:station:wmo:42043:1,2000-01-02T22:30:00Z,28.9818,-94.9186,2.0,237.2713743,4.956944623,-99999.0,'11133222,11111222,99999999' 
TABS,ioos:station:wmo:42043:1,2000-01-02T23:00:00Z,28.9818,-94.9186,2.0,237.176764,5.497708614,-99999.0,'11133222,11111222,99999999' 
TABS,ioos:station:wmo:42043:1,2000-01-02T23:30:00Z,28.9818,-94.9186,2.0,248.1982206,8.023895563,-99999.0,'11133222,11111222,99999999' 
TABS,ioos:station:wmo:42043:1,2000-01-03T00:00:00Z,28.9818,-94.9186,2.0,249.3407173,7.171122646,-99999.0,'11133222,11111222,99999999' 
TABS,ioos:station:wmo:42043:1,2000-01-03T00:30:00Z,28.9818,-94.9186,2.0,251.5887169,7.535708328,-99999.0,'11133222,11111222,99999999' 
TABS,ioos:station:wmo:42043:1,2000-01-03T01:00:00Z,28.9818,-94.9186,2.0,269.0383329,8.941258301,-99999.0,'11133222,11111222,99999999' 
TABS,ioos:station:wmo:42043:1,2000-01-03T01:30:00Z,28.9818,-94.9186,2.0,270.0004209,8.64,-99999.0,'11133222,11111222,99999999' 
TABS,ioos:station:wmo:42043:1,2000-01-03T02:00:00Z,28.9818,-94.9186,2.0,280.4019097,7.421967394,-99999.0,'11133222,11111222,99999999' 
TABS,ioos:station:wmo:42043:1,2000-01-03T02:30:00Z,28.9818,-94.9186,2.0,288.4139716,8.484391552,-99999.0,'11133222,11111222,99999999' 
TABS,ioos:station:wmo:42043:1,2000-01-03T03:00:00Z,28.9818,-94.9186,2.0,297.3293066,10.06320029,-99999.0,'11111222,11111222,99999999' 
TABS,ioos:station:wmo:42043:1,2000-01-03T03:30:00Z,28.9818,-94.9186,2.0,307.0456394,9.14604286,-99999.0,'11133222,11111222,99999999' 
TABS,ioos:station:wmo:42043:1,2000-01-03T04:00:00Z,28.9818,-94.9186,2.0,298.2204065,9.135912653,-99999.0,'11133222,11111222,99999999' 
TABS,ioos:station:wmo:42043:1,2000-01-03T04:30:00Z,28.9818,-94.9186,2.0,301.9093103,10.70811375,-99999.0,'11111222,11111222,99999999' 
TABS,ioos:station:wmo:42043:1,2000-01-03T05:00:00Z,28.9818,-94.9186,2.0,304.729336,11.77822143,-99999.0,'11111222,11111222,99999999' 
TABS,ioos:station:wmo:42043:1,2000-01-03T05:30:00Z,28.9818,-94.9186,2.0,301.7472214,11.04211031,-99999.0,'11111222,11111222,99999999' 
TABS,ioos:station:wmo:42043:1,2000-01-03T06:00:00Z,28.9818,-94.9186,2.0,306.4512589,12.03432175,-99999.0,'11111222,11111222,99999999' 
TABS,ioos:station:wmo:42043:1,2000-01-03T06:30:00Z,28.9818,-94.9186,2.0,293.6615979,9.269223268,-99999.0,'11133222,11111222,99999999' 
TABS,ioos:station:wmo:42043:1,2000-01-03T07:00:00Z,28.9818,-94.9186,2.0,282.2438783,9.148070835,-99999.0,'11133222,11111222,99999999' 
TABS,ioos:station:wmo:42043:1,2000-01-03T07:30:00Z,28.9818,-94.9186,2.0,277.0088329,9.752871372,-99999.0,'11133222,11111222,99999999' 
TABS,ioos:station:wmo:42043:1,2000-01-03T08:00:00Z,28.9818,-94.9186,2.0,273.5087701,12.09266306,-99999.0,'11111222,11111222,99999999' 
TABS,ioos:station:wmo:42043:1,2000-01-03T08:30:00Z,28.9818,-94.9186,2.0,257.3283757,12.21756113,-99999.0,'11111222,11111222,99999999' 
TABS,ioos:station:wmo:42043:1,2000-01-03T09:00:00Z,28.9818,-94.9186,2.0,279.853216,11.33721747,-99999.0,'11111222,11111222,99999999' 
TABS,ioos:station:wmo:42043:1,2000-01-03T09:30:00Z,28.9818,-94.9186,2.0,284.0366316,12.90532061,-99999.0,'11111222,11111222,99999999' 
TABS,ioos:station:wmo:42043:1,2000-01-03T10:00:00Z,28.9818,-94.9186,2.0,269.2600034,11.62096812,-99999.0,'11111222,11111222,99999999' 
TABS,ioos:station:wmo:42043:1,2000-01-03T10:30:00Z,28.9818,-94.9186,2.0,274.1659895,12.25236712,-99999.0,'11111222,11111222,99999999' 
TABS,ioos:station:wmo:42043:1,2000-01-03T11:00:00Z,28.9818,-94.9186,2.0,287.5399257,12.34387702,-99999.0,'11111222,11111222,99999999' 
TABS,ioos:station:wmo:42043:1,2000-01-03T11:30:00Z,28.9818,-94.9186,2.0,290.9455783,12.92398158,-99999.0,'11111222,11111222,99999999' 
TABS,ioos:station:wmo:42043:1,2000-01-03T12:00:00Z,28.9818,-94.9186,2.0,283.6352449,10.73246477,-99999.0,'11111222,11111222,99999999' 
TABS,ioos:station:wmo:42043:1,2000-01-03T12:30:00Z,28.9818,-94.9186,2.0,288.6369696,12.57961844,-99999.0,'11111222,11111222,99999999' 
TABS,ioos:station:wmo:42043:1,2000-01-03T13:00:00Z,28.9818,-94.9186,2.0,285.3132035,9.580109603,-99999.0,'11133222,11111222,99999999' 
TABS,ioos:station:wmo:42043:1,2000-01-03T13:30:00Z,28.9818,-94.9186,2.0,286.3216839,9.002805118,-99999.0,'11133222,11111222,99999999' 
TABS,ioos:station:wmo:42043:1,2000-01-03T14:00:00Z,28.9818,-94.9186,2.0,288.7139094,9.755741899,-99999.0,'11133222,11111222,99999999' 
TABS,ioos:station:wmo:42043:1,2000-01-03T14:30:00Z,28.9818,-94.9186,2.0,290.1479752,9.522709698,-99999.0,'11133222,11111222,99999999' 
TABS,ioos:station:wmo:42043:1,2000-01-03T15:00:00Z,28.9818,-94.9186,2.0,303.8995169,9.879276289,-99999.0,'11133222,11111222,99999999' 
TABS,ioos:station:wmo:42043:1,2000-01-03T15:30:00Z,28.9818,-94.9186,2.0,296.56541,9.659813663,-99999.0,'11133222,11111222,99999999' 
TABS,ioos:station:wmo:42043:1,2000-01-03T16:00:00Z,28.9818,-94.9186,2.0,309.6096593,11.21481609,-99999.0,'11111222,11111222,99999999' 
TABS,ioos:station:wmo:42043:1,2000-01-03T16:30:00Z,28.9818,-94.9186,2.0,314.4714478,11.49097472,-99999.0,'11111222,11111222,99999999' 
TABS,ioos:station:wmo:42043:1,2000-01-03T17:00:00Z,28.9818,-94.9186,2.0,324.8486645,12.93981839,-99999.0,'11111222,11111222,99999999' 
TABS,ioos:station:wmo:42043:1,2000-01-03T17:30:00Z,28.9818,-94.9186,2.0,327.9066068,7.566273852,-99999.0,'11133222,11111222,99999999' 
TABS,ioos:station:wmo:42043:1,2000-01-03T18:00:00Z,28.9818,-94.9186,2.0,330.864137,8.872705337,-99999.0,'11133222,11111222,99999999' 
TABS,ioos:station:wmo:42043:1,2000-01-03T18:30:00Z,28.9818,-94.9186,2.0,322.454954,10.51873091,-99999.0,'11111222,11111222,99999999' 
TABS,ioos:station:wmo:42043:1,2000-01-03T19:00:00Z,28.9818,-94.9186,2.0,324.4848953,8.968506007,-99999.0,'11133222,11111222,99999999' 
TABS,ioos:station:wmo:42043:1,2000-01-03T19:30:00Z,28.9818,-94.9186,2.0,330.7283845,11.26893961,-99999.0,'11111222,11111222,99999999' 
TABS,ioos:station:wmo:42043:1,2000-01-03T20:00:00Z,28.9818,-94.9186,2.0,324.6271904,11.33186657,-99999.0,'11111222,11111222,99999999' 
TABS,ioos:station:wmo:42043:1,2000-01-03T20:30:00Z,28.9818,-94.9186,2.0,315.695055,8.747553944,-99999.0,'11133222,11111222,99999999' 
TABS,ioos:station:wmo:42043:1,2000-01-03T21:00:00Z,28.9818,-94.9186,2.0,308.4913745,7.422971103,-99999.0,'11133222,11111222,99999999' 
TABS,ioos:station:wmo:42043:1,2000-01-03T21:30:00Z,28.9818,-94.9186,2.0,314.2510692,8.111208295,-99999.0,'11133222,11111222,99999999' 
TABS,ioos:station:wmo:42043:1,2000-01-03T22:00:00Z,28.9818,-94.9186,2.0,316.8564694,3.056304959,-99999.0,'11133222,11111222,99999999' 
TABS,ioos:station:wmo:42043:1,2000-01-03T22:30:00Z,28.9818,-94.9186,2.0,339.7331899,6.033547878,-99999.0,'11133222,11111222,99999999' 
TABS,ioos:station:wmo:42043:1,2000-01-03T23:00:00Z,28.9818,-94.9186,2.0,328.2093062,3.682458418,-99999.0,'11133222,11111222,99999999' 
TABS,ioos:station:wmo:42043:1,2000-01-03T23:30:00Z,28.9818,-94.9186,2.0,303.3427725,7.313856712,-99999.0,'11133222,11111222,99999999' 
TABS,ioos:station:wmo:42043:1,2000-01-04T00:00:00Z,28.9818,-94.9186,2.0,285.8131254,7.119417111,-99999.0,'11133222,11111222,99999999' 
TABS,ioos:station:wmo:42043:1,2000-01-04T00:30:00Z,28.9818,-94.9186,2.0,287.6707724,7.346625076,-99999.0,'11133222,11111222,99999999' 
TABS,ioos:station:wmo:42043:1,2000-01-04T01:00:00Z,28.9818,-94.9186,2.0,313.9016298,5.162828682,-99999.0,'11133222,11111222,99999999' 
TABS,ioos:station:wmo:42043:1,2000-01-04T01:30:00Z,28.9818,-94.9186,2.0,217.9486144,3.398602654,-99999.0,'11133222,11111222,99999999' 
TABS,ioos:station:wmo:42043:1,2000-01-04T02:00:00Z,28.9818,-94.9186,2.0,17.4578865,2.96664794,-99999.0,'11133222,11111222,99999999' 
TABS,ioos:station:wmo:42043:1,2000-01-04T02:30:00Z,28.9818,-94.9186,2.0,333.4352214,2.660920893,-99999.0,'11133222,11111222,99999999' 
TABS,ioos:station:wmo:42043:1,2000-01-04T03:00:00Z,28.9818,-94.9186,2.0,13.94590673,3.070504844,-99999.0,'11133222,11111222,99999999' 
TABS,ioos:station:wmo:42043:1,2000-01-04T03:30:00Z,28.9818,-94.9186,2.0,39.74230836,1.157454103,-99999.0,'11133222,11111222,99999999' 
TABS,ioos:station:wmo:42043:1,2000-01-04T04:00:00Z,28.9818,-94.9186,2.0,45.00010523,2.743574311,-99999.0,'11133222,11111222,99999999' 
TABS,ioos:station:wmo:42043:1,2000-01-04T04:30:00Z,28.9818,-94.9186,2.0,67.53946852,1.936930561,-99999.0,'11133222,11111222,99999999' 
TABS,ioos:station:wmo:42043:1,2000-01-04T05:00:00Z,28.9818,-94.9186,2.0,90.0,1.64,-99999.0,'11133222,11111222,99999999' 
TABS,ioos:station:wmo:42043:1,2000-01-04T05:30:00Z,28.9818,-94.9186,2.0,61.80508687,2.201181501,-99999.0,'11133222,11111222,99999999' 
TABS,ioos:station:wmo:42043:1,2000-01-04T06:00:00Z,28.9818,-94.9186,2.0,79.29318376,2.42216845,-99999.0,'11133222,11111222,99999999' 
TABS,ioos:station:wmo:42043:1,2000-01-04T06:30:00Z,28.9818,-94.9186,2.0,118.1949131,2.201181501,-99999.0,'11133222,11111222,99999999' 
TABS,ioos:station:wmo:42043:1,2000-01-04T07:00:00Z,28.9818,-94.9186,2.0,136.7497267,3.473514071,-99999.0,'11133222,11111222,99999999' 
TABS,ioos:station:wmo:42043:1,2000-01-04T07:30:00Z,28.9818,-94.9186,2.0,142.693171,7.870228713,-99999.0,'11133222,11111222,99999999' 
TABS,ioos:station:wmo:42043:1,2000-01-04T08:00:00Z,28.9818,-94.9186,2.0,142.4169858,12.21494576,-99999.0,'11111222,11111222,99999999' 
TABS,ioos:station:wmo:42043:1,2000-01-04T08:30:00Z,28.9818,-94.9186,2.0,137.5434388,14.34011158,-99999.0,'11111222,11111222,99999999' 
TABS,ioos:station:wmo:42043:1,2000-01-04T09:00:00Z,28.9818,-94.9186,2.0,140.3622223,13.54379932,-99999.0,'11111222,11111222,99999999' 
TABS,ioos:station:wmo:42043:1,2000-01-04T09:30:00Z,28.9818,-94.9186,2.0,133.6986021,14.01139893,-99999.0,'11111222,11111222,99999999' 
TABS,ioos:station:wmo:42043:1,2000-01-04T10:00:00Z,28.9818,-94.9186,2.0,130.4208897,15.85444102,-99999.0,'11111222,11111222,99999999' 
TABS,ioos:station:wmo:42043:1,2000-01-04T10:30:00Z,28.9818,-94.9186,2.0,120.1626141,12.75731163,-99999.0,'11111222,11111222,99999999' 
TABS,ioos:station:wmo:42043:1,2000-01-04T11:00:00Z,28.9818,-94.9186,2.0,102.7666138,8.100253082,-99999.0,'11133222,11111222,99999999' 
TABS,ioos:station:wmo:42043:1,2000-01-04T11:30:00Z,28.9818,-94.9186,2.0,123.3755262,15.1601847,-99999.0,'11111222,11111222,99999999' 
TABS,ioos:station:wmo:42043:1,2000-01-04T12:00:00Z,28.9818,-94.9186,2.0,108.0793128,8.152508816,-99999.0,'11133222,11111222,99999999' 
TABS,ioos:station:wmo:42043:1,2000-01-04T12:30:00Z,28.9818,-94.9186,2.0,96.81242942,7.502972744,-99999.0,'11133222,11111222,99999999' 
TABS,ioos:station:wmo:42043:1,2000-01-04T13:00:00Z,28.9818,-94.9186,2.0,84.68073617,11.21831092,-99999.0,'11111222,11111222,99999999' 
TABS,ioos:station:wmo:42043:1,2000-01-04T13:30:00Z,28.9818,-94.9186,2.0,67.62560702,10.95471588,-99999.0,'11111222,11111222,99999999' 
TABS,ioos:station:wmo:42043:1,2000-01-04T14:00:00Z,28.9818,-94.9186,2.0,63.97046868,21.05573556,-99999.0,'11111222,11111222,99999999' 
TABS,ioos:station:wmo:42043:1,2000-01-04T14:30:00Z,28.9818,-94.9186,2.0,50.3722007,12.38634732,-99999.0,'11111222,11111222,99999999' 
TABS,ioos:station:wmo:42043:1,2000-01-04T15:00:00Z,28.9818,-94.9186,2.0,59.74861625,16.5543227,-99999.0,'11111222,11111222,99999999' 
TABS,ioos:station:wmo:42043:1,2000-01-04T15:30:00Z,28.9818,-94.9186,2.0,48.04509355,19.83406413,-99999.0,'11111222,11111222,99999999' 
TABS,ioos:station:wmo:42043:1,2000-01-04T16:00:00Z,28.9818,-94.9186,2.0,51.66163103,24.50404865,-99999.0,'11111222,11111222,99999999' 
TABS,ioos:station:wmo:42043:1,2000-01-04T16:30:00Z,28.9818,-94.9186,2.0,51.74999705,25.9895402,-99999.0,'11111222,11111222,99999999' 
TABS,ioos:station:wmo:42043:1,2000-01-04T17:00:00Z,28.9818,-94.9186,2.0,48.54302379,27.23323337,-99999.0,'11111222,11111222,99999999' 
TABS,ioos:station:wmo:42043:1,2000-01-04T17:30:00Z,28.9818,-94.9186,2.0,49.68548091,25.7966083,-99999.0,'11111222,11111222,99999999' 
TABS,ioos:station:wmo:42043:1,2000-01-04T18:00:00Z,28.9818,-94.9186,2.0,51.29373061,28.83280944,-99999.0,'11111222,11111222,99999999' 
TABS,ioos:station:wmo:42043:1,2000-01-04T18:30:00Z,28.9818,-94.9186,2.0,53.53353711,29.83073918,-99999.0,'11111222,11111222,99999999' 
TABS,ioos:station:wmo:42043:1,2000-01-04T19:00:00Z,28.9818,-94.9186,2.0,56.54734829,29.46038017,-99999.0,'11111222,11111222,99999999' 
TABS,ioos:station:wmo:42043:1,2000-01-04T19:30:00Z,28.9818,-94.9186,2.0,59.51052071,30.25338659,-99999.0,'11111222,11111222,99999999' 
TABS,ioos:station:wmo:42043:1,2000-01-04T20:00:00Z,28.9818,-94.9186,2.0,59.69529871,30.71742828,-99999.0,'11111222,11111222,99999999' 
TABS,ioos:station:wmo:42043:1,2000-01-04T20:30:00Z,28.9818,-94.9186,2.0,62.33156589,31.11842059,-99999.0,'11111222,11111222,99999999' 
TABS,ioos:station:wmo:42043:1,2000-01-04T21:00:00Z,28.9818,-94.9186,2.0,64.12436379,33.45399827,-99999.0,'11111222,11111222,99999999' 
TABS,ioos:station:wmo:42043:1,2000-01-04T21:30:00Z,28.9818,-94.9186,2.0,60.24884931,33.63325884,-99999.0,'11111222,11111222,99999999' 
TABS,ioos:station:wmo:42043:1,2000-01-04T22:00:00Z,28.9818,-94.9186,2.0,62.31599906,30.45658221,-99999.0,'11111222,11111222,99999999' 
TABS,ioos:station:wmo:42043:1,2000-01-04T22:30:00Z,28.9818,-94.9186,2.0,61.34840535,31.07511706,-99999.0,'11111222,11111222,99999999' 
TABS,ioos:station:wmo:42043:1,2000-01-04T23:00:00Z,28.9818,-94.9186,2.0,65.36113301,29.67149811,-99999.0,'11111222,11111222,99999999' 
TABS,ioos:station:wmo:42043:1,2000-01-04T23:30:00Z,28.9818,-94.9186,2.0,65.77231134,32.67825118,-99999.0,'11111222,11111222,99999999' 
TABS,ioos:station:wmo:42043:1,2000-01-05T00:00:00Z,28.9818,-94.9186,2.0,61.25603261,22.9362813,-99999.0,'11111222,11111222,99999999' 
TABS,ioos:station:wmo:42043:1,2000-01-05T00:30:00Z,28.9818,-94.9186,2.0,66.95631645,28.17846341,-99999.0,'11111222,11111222,99999999' 
TABS,ioos:station:wmo:42043:1,2000-01-05T01:00:00Z,28.9818,-94.9186,2.0,66.16682326,26.55441583,-99999.0,'11111222,11111222,99999999' 
TABS,ioos:station:wmo:42043:1,2000-01-05T01:30:00Z,28.9818,-94.9186,2.0,65.96714863,25.61009567,-99999.0,'11111222,11111222,99999999' 
TABS,ioos:station:wmo:42043:1,2000-01-05T02:00:00Z,28.9818,-94.9186,2.0,64.29581564,26.79111793,-99999.0,'11111222,11111222,99999999' 
TABS,ioos:station:wmo:42043:1,2000-01-05T02:30:00Z,28.9818,-94.9186,2.0,63.86651811,26.72177015,-99999.0,'11111222,11111222,99999999' 
TABS,ioos:station:wmo:42043:1,2000-01-05T03:00:00Z,28.9818,-94.9186,2.0,61.83842641,28.73121125,-99999.0,'11111222,11111222,99999999' 
TABS,ioos:station:wmo:42043:1,2000-01-05T03:30:00Z,28.9818,-94.9186,2.0,63.7043951,27.58443945,-99999.0,'11111222,11111222,99999999' 
TABS,ioos:station:wmo:42043:1,2000-01-05T04:00:00Z,28.9818,-94.9186,2.0,64.85880178,26.99767583,-99999.0,'11111222,11111222,99999999' 
TABS,ioos:station:wmo:42043:1,2000-01-05T04:30:00Z,28.9818,-94.9186,2.0,65.469247,26.20534297,-99999.0,'11111222,11111222,99999999' 
TABS,ioos:station:wmo:42043:1,2000-01-05T05:00:00Z,28.9818,-94.9186,2.0,60.87902734,28.4800632,-99999.0,'11111222,11111222,99999999' 
TABS,ioos:station:wmo:42043:1,2000-01-05T05:30:00Z,28.9818,-94.9186,2.0,57.40777798,27.93982999,-99999.0,'11111222,11111222,99999999' 
TABS,ioos:station:wmo:42043:1,2000-01-05T06:00:00Z,28.9818,-94.9186,2.0,63.43501094,26.65393029,-99999.0,'11111222,11111222,99999999' 
TABS,ioos:station:wmo:42043:1,2000-01-05T06:30:00Z,28.9818,-94.9186,2.0,60.07227179,28.36192694,-99999.0,'11111222,11111222,99999999' 
TABS,ioos:station:wmo:42043:1,2000-01-05T07:00:00Z,28.9818,-94.9186,2.0,60.97231069,24.87463367,-99999.0,'11111222,11111222,99999999' 
TABS,ioos:station:wmo:42043:1,2000-01-05T07:30:00Z,28.9818,-94.9186,2.0,62.58573866,22.32735542,-99999.0,'11111222,11111222,99999999' 
TABS,ioos:station:wmo:42043:1,2000-01-05T08:00:00Z,28.9818,-94.9186,2.0,61.78746005,23.33183448,-99999.0,'11111222,11111222,99999999' 
TABS,ioos:station:wmo:42043:1,2000-01-05T08:30:00Z,28.9818,-94.9186,2.0,65.87050335,23.67898858,-99999.0,'11111222,11111222,99999999' 
TABS,ioos:station:wmo:42043:1,2000-01-05T09:00:00Z,28.9818,-94.9186,2.0,72.70704894,19.04069326,-99999.0,'11111222,11111222,99999999' 
TABS,ioos:station:wmo:42043:1,2000-01-05T09:30:00Z,28.9818,-94.9186,2.0,75.15414086,15.1042014,-99999.0,'11111222,11111222,99999999' 
TABS,ioos:station:wmo:42043:1,2000-01-05T10:00:00Z,28.9818,-94.9186,2.0,82.53730887,12.62695529,-99999.0,'11111222,11111222,99999999' 
TABS,ioos:station:wmo:42043:1,2000-01-05T10:30:00Z,28.9818,-94.9186,2.0,82.53730887,12.62695529,-99999.0,'11111222,11111222,99999999' 
TABS,ioos:station:wmo:42043:1,2000-01-05T11:00:00Z,28.9818,-94.9186,2.0,85.94172103,10.45621825,-99999.0,'11111222,11111222,99999999' 
TABS,ioos:station:wmo:42043:1,2000-01-05T11:30:00Z,28.9818,-94.9186,2.0,96.19442583,8.24815737,-99999.0,'11133222,11111222,99999999' 
TABS,ioos:station:wmo:42043:1,2000-01-05T12:00:00Z,28.9818,-94.9186,2.0,99.60275182,10.73035414,-99999.0,'11111222,11111222,99999999' 
TABS,ioos:station:wmo:42043:1,2000-01-05T12:30:00Z,28.9818,-94.9186,2.0,99.62077924,8.915391186,-99999.0,'11133222,11111222,99999999' 
TABS,ioos:station:wmo:42043:1,2000-01-05T13:00:00Z,28.9818,-94.9186,2.0,106.9560007,9.189477678,-99999.0,'11133222,11111222,99999999' 
TABS,ioos:station:wmo:42043:1,2000-01-05T13:30:00Z,28.9818,-94.9186,2.0,115.0074852,7.404120474,-99999.0,'11133222,11111222,99999999' 
TABS,ioos:station:wmo:42043:1,2000-01-05T14:00:00Z,28.9818,-94.9186,2.0,127.441709,8.816439191,-99999.0,'11133222,11111222,99999999' 
TABS,ioos:station:wmo:42043:1,2000-01-05T14:30:00Z,28.9818,-94.9186,2.0,90.0,5.81,-99999.0,'11133222,11111222,99999999' 
TABS,ioos:station:wmo:42043:1,2000-01-05T15:00:00Z,28.9818,-94.9186,2.0,117.2552646,5.196999134,-99999.0,'11133222,11111222,99999999' 
TABS,ioos:station:wmo:42043:1,2000-01-05T15:30:00Z,28.9818,-94.9186,2.0,112.2217593,3.543162429,-99999.0,'11133222,11111222,99999999' 
TABS,ioos:station:wmo:42043:1,2000-01-05T16:00:00Z,28.9818,-94.9186,2.0,113.9425937,2.932319901,-99999.0,'11133222,11111222,99999999' 
TABS,ioos:station:wmo:42043:1,2000-01-05T16:30:00Z,28.9818,-94.9186,2.0,99.5141983,3.629931129,-99999.0,'11133222,11111222,99999999' 
TABS,ioos:station:wmo:42043:1,2000-01-05T17:00:00Z,28.9818,-94.9186,2.0,86.79649654,2.684194479,-99999.0,'11133222,11111222,99999999' 
TABS,ioos:station:wmo:42043:1,2000-01-05T17:30:00Z,28.9818,-94.9186,2.0,80.43333638,0.902551938,-99999.0,'11133222,11111222,99999999' 
TABS,ioos:station:wmo:42043:1,2000-01-06T04:00:00Z,28.9818,-94.9186,2.0,218.6125822,1.906882272,-99999.0,'11133222,11111222,99999999' 
TABS,ioos:station:wmo:42043:1,2000-01-06T04:30:00Z,28.9818,-94.9186,2.0,246.6018699,1.133181362,-99999.0,'11133222,11111222,99999999' 
TABS,ioos:station:wmo:42043:1,2000-01-06T05:00:00Z,28.9818,-94.9186,2.0,189.5664532,0.902551938,-99999.0,'11133222,11111222,99999999' 
TABS,ioos:station:wmo:42043:1,2000-01-06T05:30:00Z,28.9818,-94.9186,2.0,270.0004209,1.34,-99999.0,'11133222,11111222,99999999' 
TABS,ioos:station:wmo:42043:1,2000-01-06T06:00:00Z,28.9818,-94.9186,2.0,294.6442638,2.134408583,-99999.0,'11133222,11111222,99999999' 
TABS,ioos:station:wmo:42043:1,2000-01-06T06:30:00Z,28.9818,-94.9186,2.0,248.0657453,1.606268969,-99999.0,'11133222,11111222,99999999' 
TABS,ioos:station:wmo:42043:1,2000-01-06T07:00:00Z,28.9818,-94.9186,2.0,213.7490292,2.681976883,-99999.0,'11133222,11111222,99999999' 
TABS,ioos:station:wmo:42043:1,2000-01-06T07:30:00Z,28.9818,-94.9186,2.0,218.6125822,3.813764544,-99999.0,'11133222,11111222,99999999' 
TABS,ioos:station:wmo:42043:1,2000-01-06T08:00:00Z,28.9818,-94.9186,2.0,226.5590717,3.897601827,-99999.0,'11133222,11111222,99999999' 
TABS,ioos:station:wmo:42043:1,2000-01-06T08:30:00Z,28.9818,-94.9186,2.0,209.4921197,3.940621778,-99999.0,'11133222,11111222,99999999' 
TABS,ioos:station:wmo:42043:1,2000-01-06T09:00:00Z,28.9818,-94.9186,2.0,217.5969022,4.884393514,-99999.0,'11133222,11111222,99999999' 
TABS,ioos:station:wmo:42043:1,2000-01-06T09:30:00Z,28.9818,-94.9186,2.0,190.9804139,5.45996337,-99999.0,'11133222,11111222,99999999' 
TABS,ioos:station:wmo:42043:1,2000-01-06T10:00:00Z,28.9818,-94.9186,2.0,211.4638596,6.283947804,-99999.0,'11133222,11111222,99999999' 
TABS,ioos:station:wmo:42043:1,2000-01-06T10:30:00Z,28.9818,-94.9186,2.0,204.7212017,8.201670562,-99999.0,'11133222,11111222,99999999' 
TABS,ioos:station:wmo:42043:1,2000-01-06T11:00:00Z,28.9818,-94.9186,2.0,200.2371103,9.048591051,-99999.0,'11133222,11111222,99999999' 
TABS,ioos:station:wmo:42043:1,2000-01-06T11:30:00Z,28.9818,-94.9186,2.0,198.713278,9.755741899,-99999.0,'11133222,11111222,99999999' 
TABS,ioos:station:wmo:42043:1,2000-01-06T12:00:00Z,28.9818,-94.9186,2.0,199.7335387,10.60267891,-99999.0,'11111222,11111222,99999999' 
TABS,ioos:station:wmo:42043:1,2000-01-06T12:30:00Z,28.9818,-94.9186,2.0,206.8760441,11.52486442,-99999.0,'11111222,11111222,99999999' 
TABS,ioos:station:wmo:42043:1,2000-01-06T13:00:00Z,28.9818,-94.9186,2.0,205.5136003,10.72598713,-99999.0,'11111222,11111222,99999999' 
TABS,ioos:station:wmo:42043:1,2000-01-06T13:30:00Z,28.9818,-94.9186,2.0,208.1341297,9.79765278,-99999.0,'11133222,11111222,99999999' 
TABS,ioos:station:wmo:42043:1,2000-01-06T14:00:00Z,28.9818,-94.9186,2.0,215.0456351,12.19017637,-99999.0,'11111222,11111222,99999999' 
TABS,ioos:station:wmo:42043:1,2000-01-06T14:30:00Z,28.9818,-94.9186,2.0,219.4642261,13.1214519,-99999.0,'11111222,11111222,99999999' 
TABS,ioos:station:wmo:42043:1,2000-01-06T15:00:00Z,28.9818,-94.9186,2.0,229.2667159,14.16017302,-99999.0,'11111222,11111222,99999999' 
TABS,ioos:station:wmo:42043:1,2000-01-06T15:30:00Z,28.9818,-94.9186,2.0,225.4087372,14.85669209,-99999.0,'11111222,11111222,99999999' 
TABS,ioos:station:wmo:42043:1,2000-01-06T16:00:00Z,28.9818,-94.9186,2.0,225.8236301,14.75177277,-99999.0,'11111222,11111222,99999999' 
TABS,ioos:station:wmo:42043:1,2000-01-06T16:30:00Z,28.9818,-94.9186,2.0,227.5700163,16.55588415,-99999.0,'11111222,11111222,99999999' 
TABS,ioos:station:wmo:42043:1,2000-01-06T17:00:00Z,28.9818,-94.9186,2.0,238.6603518,12.03602925,-99999.0,'11111222,11111222,99999999' 
TABS,ioos:station:wmo:42043:1,2000-01-06T17:30:00Z,28.9818,-94.9186,2.0,232.3206698,14.87148278,-99999.0,'11111222,11111222,99999999' 
TABS,ioos:station:wmo:42043:1,2000-01-06T18:00:00Z,28.9818,-94.9186,2.0,240.6819138,12.47824106,-99999.0,'11111222,11111222,99999999' 
TABS,ioos:station:wmo:42043:1,2000-01-06T18:30:00Z,28.9818,-94.9186,2.0,243.9999892,13.59595528,-99999.0,'11111222,11111222,99999999' 
TABS,ioos:station:wmo:42043:1,2000-01-06T19:00:00Z,28.9818,-94.9186,2.0,235.8529397,15.6596839,-99999.0,'11111222,11111222,99999999' 